This demonstration page uses our WeatherBlox Daily Observations layout. Learn more.

Left ArrowRight Arrow

39.29038, -76.61219

Hourly Observations for February 13, 2017

Temp ( °F °C ) Dew Point ( °F °C ) Humidity (%) Winds ( mph kmh ) Pressure ( in mb ) Visibility ( mi km ) Precip ( " mm )
12:54 am 00:54 undefined 45 7.2 23 -5 42 42 undefined N/A 29.81 1010 N/A 0.00 0.00
1:54 am 01:54 undefined 43 6.1 20 -6.7 40 40 undefined N/A 29.85 1011 N/A 0.00 0.00
2:54 am 02:54 undefined 40 4.4 22 -5.6 49 49 undefined N/A 29.86 1011 N/A 0.00 0.00
3:54 am 03:54 undefined 39 3.9 22 -5.6 50 50 undefined N/A 29.89 1012 N/A 0.00 0.00
4:54 am 04:54 undefined 38 3.3 20 -6.7 48 48 undefined N/A 29.93 1014 N/A 0.00 0.00
5:54 am 05:54 undefined 38 3.3 15 -9.4 39 39 undefined N/A 29.95 1014 N/A 0.00 0.00
6:54 am 06:54 undefined 38 3.3 16 -8.9 41 41 undefined N/A 29.96 1015 N/A 0.00 0.00
7:54 am 07:54 undefined 38 3.3 16 -8.9 41 41 undefined N/A 29.99 1016 N/A 0.00 0.00
8:54 am 08:54 undefined 38 3.3 16 -8.9 41 41 undefined N/A 30.02 1017 N/A 0.00 0.00
9:54 am 09:54 undefined 38 3.3 13 -10.6 36 36 undefined N/A 30.01 1016 N/A 0.00 0.00
10:54 am 10:54 undefined 40 4.4 14 -10 35 35 undefined N/A 30.01 1016 N/A 0.00 0.00
11:54 am 11:54 undefined 41 5 14 -10 33 33 undefined N/A 30.00 1016 N/A 0.00 0.00
12:54 pm 12:54 undefined 42 5.6 15 -9.4 33 33 undefined N/A 30.00 1016 N/A 0.00 0.00
3:54 pm 15:54 undefined 42 5.6 17 -8.3 36 36 undefined N/A 29.99 1016 N/A 0.00 0.00
4:54 pm 16:54 undefined 42 5.6 16 -8.9 35 35 undefined N/A 30.02 1017 N/A 0.00 0.00
5:54 pm 17:54 undefined 41 5 17 -8.3 38 38 undefined N/A 30.04 1017 N/A 0.00 0.00
6:54 pm 18:54 undefined 40 4.4 16 -8.9 38 38 undefined N/A 30.07 1018 N/A 0.00 0.00
7:54 pm 19:54 undefined 39 3.9 17 -8.3 41 41 undefined N/A 30.08 1019 N/A 0.00 0.00
8:54 pm 20:54 undefined 38 3.3 17 -8.3 43 43 undefined N/A 30.08 1019 N/A 0.00 0.00
9:54 pm 21:54 undefined 37 2.8 17 -8.3 44 44 undefined N/A 30.09 1019 N/A 0.00 0.00
10:54 pm 22:54 undefined 36 2.2 18 -7.8 48 48 undefined N/A 30.07 1018 N/A 0.00 0.00
11:54 pm 23:54 undefined 36 2.2 17 -8.3 46 46 undefined N/A 30.07 1018 N/A 0.00 0.00

Powered by AerisWeather